MCX4511 KDAB-KMIA

Flight info

Callsign MCX4511
Flight time 0h 42m
Altitude 29000
Route ILIND DDANY CSTAL3
Aircraft CRJ7/M-SDFGIRWY/S

Departure

Time 2026-04-26 17:40
Airport Daytona Beach International Airport (KDAB)

Arrival

Time 2026-04-26 18:23
Airport Miami International Airport (KMIA)
Time Latitude Longitude Altitude Speed Heading
2026-04-26 17:05 29.18379 -81.06142 41 ft 0 kts 102°
2026-04-26 17:28 29.18380 -81.06148 41 ft 4 kts 103°
2026-04-26 17:28 29.18390 -81.06177 41 ft 4 kts 122°
2026-04-26 17:28 29.18408 -81.06196 41 ft 4 kts 158°
2026-04-26 17:28 29.18423 -81.06198 41 ft 0 kts 192°
2026-04-26 17:30 29.18397 -81.06204 41 ft 7 kts 192°
2026-04-26 17:30 29.18339 -81.06218 41 ft 10 kts 192°
2026-04-26 17:31 29.18256 -81.06231 41 ft 14 kts 172°
2026-04-26 17:31 29.18175 -81.06194 41 ft 10 kts 155°
2026-04-26 17:31 29.18143 -81.06176 41 ft 0 kts 154°
2026-04-26 17:33 29.18123 -81.06165 41 ft 9 kts 151°
2026-04-26 17:33 29.18091 -81.06100 41 ft 11 kts 77°
2026-04-26 17:33 29.18125 -81.06006 41 ft 15 kts 65°
2026-04-26 17:34 29.18222 -81.05767 41 ft 18 kts 65°
2026-04-26 17:34 29.18277 -81.05632 41 ft 19 kts 65°
2026-04-26 17:34 29.18335 -81.05489 41 ft 19 kts 65°
2026-04-26 17:34 29.18386 -81.05362 40 ft 17 kts 65°
2026-04-26 17:35 29.18438 -81.05234 41 ft 18 kts 65°
2026-04-26 17:35 29.18492 -81.05100 41 ft 13 kts 65°
2026-04-26 17:35 29.18533 -81.05000 41 ft 14 kts 65°
2026-04-26 17:35 29.18569 -81.04907 42 ft 10 kts 73°
2026-04-26 17:36 29.18547 -81.04846 42 ft 8 kts 153°
2026-04-26 17:36 29.18542 -81.04844 42 ft 0 kts 159°
2026-04-26 17:39 29.18526 -81.04837 43 ft 8 kts 159°
2026-04-26 17:39 29.18443 -81.04854 43 ft 19 kts 232°
2026-04-26 17:39 29.18327 -81.05132 43 ft 70 kts 245°
2026-04-26 17:39 29.18032 -81.05860 42 ft 128 kts 245°
2026-04-26 17:40 29.17608 -81.06926 174 ft 159 kts 246°
2026-04-26 17:40 29.17309 -81.07707 539 ft 161 kts 246°
2026-04-26 17:40 29.16662 -81.09252 1289 ft 170 kts 244°
2026-04-26 17:40 29.16073 -81.10570 1633 ft 200 kts 243°
2026-04-26 17:41 29.15403 -81.12062 2160 ft 221 kts 243°
2026-04-26 17:41 29.14665 -81.13674 2817 ft 236 kts 239°
2026-04-26 17:41 29.13470 -81.15009 3737 ft 248 kts 208°
2026-04-26 17:41 29.11792 -81.15422 4763 ft 256 kts 178°
2026-04-26 17:42 29.10066 -81.14808 5658 ft 266 kts 152°
2026-04-26 17:42 29.08468 -81.13689 6487 ft 271 kts 150°
2026-04-26 17:42 29.06869 -81.12530 7263 ft 274 kts 148°
2026-04-26 17:42 29.05269 -81.11310 8020 ft 279 kts 147°
2026-04-26 17:43 29.03663 -81.10035 8820 ft 282 kts 146°
2026-04-26 17:43 29.02060 -81.08716 9593 ft 286 kts 146°
2026-04-26 17:43 29.00424 -81.07385 10303 ft 290 kts 147°
2026-04-26 17:43 28.98714 -81.06061 10719 ft 307 kts 148°
2026-04-26 17:44 28.96877 -81.04646 10973 ft 329 kts 147°
2026-04-26 17:44 28.94954 -81.03162 11336 ft 346 kts 147°
2026-04-26 17:44 28.92910 -81.01595 11832 ft 358 kts 147°
2026-04-26 17:44 28.90831 -80.99995 12517 ft 363 kts 147°
2026-04-26 17:45 28.88715 -80.98367 13194 ft 368 kts 147°
2026-04-26 17:45 28.86575 -80.96722 13854 ft 374 kts 147°
2026-04-26 17:45 28.84411 -80.95060 14474 ft 377 kts 147°
2026-04-26 17:45 28.82219 -80.93379 15130 ft 382 kts 147°
2026-04-26 17:46 28.80000 -80.91677 15789 ft 386 kts 147°
2026-04-26 17:46 28.77759 -80.89961 16416 ft 390 kts 147°
2026-04-26 17:46 28.75489 -80.88225 17038 ft 395 kts 147°
2026-04-26 17:46 28.73199 -80.86470 17577 ft 399 kts 147°
2026-04-26 17:47 28.70885 -80.84694 18144 ft 402 kts 147°
2026-04-26 17:47 28.69291 -80.83614 18461 ft 403 kts 157°
2026-04-26 17:47 28.65741 -80.82240 19130 ft 403 kts 167°
2026-04-26 17:47 28.63009 -80.81447 19623 ft 406 kts 168°
2026-04-26 17:48 28.60298 -80.80647 20162 ft 409 kts 167°
2026-04-26 17:48 28.57547 -80.79750 20652 ft 412 kts 165°
2026-04-26 17:48 28.54801 -80.78793 21121 ft 414 kts 165°
2026-04-26 17:48 28.52026 -80.77842 21577 ft 417 kts 165°
2026-04-26 17:49 28.49238 -80.76885 22017 ft 420 kts 165°
2026-04-26 17:49 28.46431 -80.75929 22444 ft 422 kts 165°
2026-04-26 17:49 28.43598 -80.74962 22857 ft 425 kts 165°
2026-04-26 17:49 28.40753 -80.73990 23262 ft 428 kts 165°
2026-04-26 17:50 28.37896 -80.73016 23645 ft 430 kts 165°
2026-04-26 17:50 28.35021 -80.72035 23954 ft 432 kts 165°
2026-04-26 17:50 28.32171 -80.71067 24280 ft 434 kts 165°
2026-04-26 17:50 28.29260 -80.70076 24619 ft 437 kts 165°
2026-04-26 17:51 28.26339 -80.69082 24946 ft 439 kts 165°
2026-04-26 17:51 28.23399 -80.68088 25255 ft 441 kts 165°
2026-04-26 17:51 28.20438 -80.67087 25563 ft 444 kts 165°
2026-04-26 17:51 28.17459 -80.66119 25891 ft 445 kts 166°
2026-04-26 17:52 28.14493 -80.65225 26164 ft 447 kts 167°
2026-04-26 17:52 28.11480 -80.64322 26447 ft 449 kts 167°
2026-04-26 17:52 28.08447 -80.63408 26706 ft 452 kts 167°
2026-04-26 17:52 28.05392 -80.62491 26840 ft 457 kts 167°
2026-04-26 17:53 28.02307 -80.61567 26905 ft 459 kts 167°
2026-04-26 17:53 27.99204 -80.60639 26930 ft 462 kts 167°
2026-04-26 17:53 27.96084 -80.59704 26943 ft 465 kts 167°
2026-04-26 17:54 27.89791 -80.57819 26950 ft 471 kts 167°
2026-04-26 17:54 27.86611 -80.56870 26947 ft 473 kts 167°
2026-04-26 17:54 27.83417 -80.55916 26964 ft 476 kts 167°
2026-04-26 17:54 27.80210 -80.54959 26960 ft 478 kts 167°
2026-04-26 17:55 27.77028 -80.54009 26968 ft 480 kts 167°
2026-04-26 17:55 27.73788 -80.53043 26969 ft 482 kts 167°
2026-04-26 17:55 27.70536 -80.52074 26975 ft 484 kts 167°
2026-04-26 17:55 27.67269 -80.51100 26977 ft 486 kts 167°
2026-04-26 17:56 27.64004 -80.50058 26978 ft 487 kts 164°
2026-04-26 17:56 27.57612 -80.47514 26974 ft 487 kts 161°
2026-04-26 17:57 27.51251 -80.44896 26962 ft 486 kts 162°
2026-04-26 17:57 27.48061 -80.43634 26958 ft 485 kts 162°
2026-04-26 17:57 27.44877 -80.42371 26955 ft 485 kts 162°
2026-04-26 17:57 27.41731 -80.41127 26951 ft 484 kts 162°
2026-04-26 17:58 27.32197 -80.37362 26956 ft 483 kts 162°
2026-04-26 17:59 27.25957 -80.34903 26948 ft 463 kts 162°
2026-04-26 17:59 27.22950 -80.33715 26937 ft 453 kts 162°
2026-04-26 17:59 27.19997 -80.32554 26721 ft 449 kts 163°
2026-04-26 17:59 27.17056 -80.31419 26298 ft 445 kts 162°
2026-04-26 18:00 27.14140 -80.30285 25881 ft 441 kts 162°
2026-04-26 18:00 27.11284 -80.29177 25481 ft 437 kts 162°
2026-04-26 18:00 27.08414 -80.28063 25076 ft 434 kts 162°
2026-04-26 18:00 27.05560 -80.26954 24677 ft 431 kts 162°
2026-04-26 18:01 27.02732 -80.25859 24288 ft 429 kts 162°
2026-04-26 18:01 26.99939 -80.24775 23906 ft 421 kts 162°
2026-04-26 18:01 26.97199 -80.23715 23522 ft 414 kts 163°
2026-04-26 18:01 26.94610 -80.22711 23089 ft 409 kts 163°
2026-04-26 18:02 26.91933 -80.21676 22653 ft 406 kts 163°
2026-04-26 18:02 26.90163 -80.20991 22352 ft 404 kts 163°
2026-04-26 18:02 26.86609 -80.19621 21817 ft 402 kts 163°
2026-04-26 18:02 26.83989 -80.18640 21443 ft 404 kts 163°
2026-04-26 18:03 26.81309 -80.17649 21074 ft 407 kts 163°
2026-04-26 18:03 26.78604 -80.16645 20710 ft 410 kts 163°
2026-04-26 18:03 26.75895 -80.15638 20356 ft 410 kts 163°
2026-04-26 18:03 26.73198 -80.14637 19991 ft 407 kts 163°
2026-04-26 18:04 26.70503 -80.13658 19642 ft 404 kts 166°
2026-04-26 18:04 26.67797 -80.12883 19296 ft 400 kts 169°
2026-04-26 18:04 26.65084 -80.12225 18951 ft 395 kts 170°
2026-04-26 18:05 26.59784 -80.10902 18279 ft 387 kts 169°
2026-04-26 18:05 26.57177 -80.10220 17942 ft 384 kts 169°
2026-04-26 18:05 26.54572 -80.09542 17527 ft 384 kts 169°
2026-04-26 18:05 26.51969 -80.08882 17061 ft 383 kts 169°
2026-04-26 18:06 26.49363 -80.08238 16591 ft 383 kts 169°
2026-04-26 18:06 26.46763 -80.07599 16124 ft 382 kts 170°
2026-04-26 18:06 26.44168 -80.06986 15664 ft 381 kts 171°
2026-04-26 18:06 26.41547 -80.06422 14791 ft 385 kts 171°
2026-04-26 18:07 26.38954 -80.05862 13649 ft 386 kts 171°
2026-04-26 18:07 26.36319 -80.05220 12496 ft 385 kts 168°
2026-04-26 18:07 26.33798 -80.04521 12193 ft 364 kts 168°
2026-04-26 18:07 26.32153 -80.04059 11992 ft 357 kts 168°
2026-04-26 18:08 26.29009 -80.03164 11593 ft 349 kts 168°
2026-04-26 18:08 26.26606 -80.02496 11308 ft 359 kts 169°
2026-04-26 18:08 26.24151 -80.02342 11136 ft 351 kts 189°
2026-04-26 18:08 26.21765 -80.02821 11063 ft 343 kts 195°
2026-04-26 18:09 26.19462 -80.03424 11029 ft 337 kts 196°
2026-04-26 18:09 26.17198 -80.04024 11010 ft 332 kts 196°
2026-04-26 18:09 26.14969 -80.04602 10997 ft 326 kts 195°
2026-04-26 18:09 26.12799 -80.05114 10981 ft 311 kts 194°
2026-04-26 18:10 26.10751 -80.05584 10973 ft 297 kts 195°
2026-04-26 18:10 26.08748 -80.06047 10970 ft 294 kts 195°
2026-04-26 18:10 26.06739 -80.06505 10972 ft 295 kts 195°
2026-04-26 18:10 26.04713 -80.06975 10692 ft 297 kts 195°
2026-04-26 18:11 26.02702 -80.07476 10398 ft 295 kts 196°
2026-04-26 18:11 26.00708 -80.07987 10118 ft 293 kts 196°
2026-04-26 18:11 25.98727 -80.08500 9835 ft 291 kts 196°
2026-04-26 18:11 25.96755 -80.09012 9528 ft 290 kts 196°
2026-04-26 18:12 25.94799 -80.09523 9219 ft 288 kts 196°
2026-04-26 18:12 25.92888 -80.10046 8926 ft 283 kts 201°
2026-04-26 18:12 25.91275 -80.11186 8675 ft 272 kts 227°
2026-04-26 18:12 25.90011 -80.12721 8453 ft 267 kts 232°
2026-04-26 18:13 25.88839 -80.14306 8217 ft 263 kts 233°
2026-04-26 18:13 25.88037 -80.16057 8093 ft 249 kts 259°
2026-04-26 18:13 25.87791 -80.17920 8106 ft 243 kts 267°
2026-04-26 18:13 25.87755 -80.18554 8098 ft 245 kts 268°
2026-04-26 18:14 25.87708 -80.21812 7788 ft 262 kts 271°
2026-04-26 18:14 25.87714 -80.23823 7511 ft 259 kts 270°
2026-04-26 18:14 25.87681 -80.25792 7264 ft 257 kts 269°
2026-04-26 18:14 25.87610 -80.27776 7158 ft 256 kts 269°
2026-04-26 18:15 25.87882 -80.29705 6994 ft 253 kts 290°
2026-04-26 18:15 25.88607 -80.31469 6752 ft 249 kts 297°
2026-04-26 18:15 25.89449 -80.33123 6475 ft 244 kts 300°
2026-04-26 18:15 25.90303 -80.34740 6194 ft 240 kts 299°
2026-04-26 18:16 25.91133 -80.36344 5767 ft 240 kts 298°
2026-04-26 18:16 25.92686 -80.39547 5044 ft 224 kts 296°
2026-04-26 18:16 25.93391 -80.41055 4785 ft 218 kts 296°
2026-04-26 18:17 25.93777 -80.42661 4386 ft 215 kts 274°
2026-04-26 18:17 25.93819 -80.44313 3914 ft 214 kts 268°
2026-04-26 18:17 25.93778 -80.45940 3478 ft 212 kts 267°
2026-04-26 18:17 25.93690 -80.47568 3221 ft 210 kts 256°
2026-04-26 18:18 25.92895 -80.48847 3083 ft 202 kts 213°
2026-04-26 18:18 25.91524 -80.49096 3021 ft 210 kts 168°
2026-04-26 18:18 25.90227 -80.48294 3099 ft 220 kts 147°
2026-04-26 18:18 25.89063 -80.47143 3078 ft 229 kts 130°
2026-04-26 18:19 25.88139 -80.45728 3066 ft 221 kts 126°
2026-04-26 18:19 25.87305 -80.44351 2871 ft 205 kts 125°
2026-04-26 18:19 25.86567 -80.43082 2615 ft 187 kts 124°
2026-04-26 18:19 25.86123 -80.42283 2425 ft 179 kts 122°
2026-04-26 18:20 25.85521 -80.41121 2160 ft 168 kts 121°
2026-04-26 18:20 25.84971 -80.40055 1927 ft 147 kts 121°
2026-04-26 18:20 25.84471 -80.39080 1758 ft 152 kts 122°
2026-04-26 18:20 25.84122 -80.38409 1693 ft 151 kts 122°
2026-04-26 18:21 25.83432 -80.37063 1425 ft 150 kts 122°
2026-04-26 18:21 25.82918 -80.36072 1231 ft 148 kts 122°
2026-04-26 18:21 25.82397 -80.35059 1014 ft 152 kts 121°
2026-04-26 18:21 25.81875 -80.34076 833 ft 143 kts 124°
2026-04-26 18:22 25.81404 -80.33124 665 ft 144 kts 124°
2026-04-26 18:22 25.80918 -80.32136 416 ft 143 kts 124°
2026-04-26 18:22 25.80435 -80.31222 227 ft 134 kts 121°
2026-04-26 18:22 25.79973 -80.30312 60 ft 132 kts 122°
2026-04-26 18:23 25.79570 -80.29539 13 ft 90 kts 120°
2026-04-26 18:23 25.79360 -80.29121 12 ft 32 kts 119°
2026-04-26 18:23 25.79301 -80.28991 12 ft 14 kts 100°
2026-04-26 18:23 25.79323 -80.28886 12 ft 15 kts 60°
2026-04-26 18:24 25.79354 -80.28826 13 ft 0 kts 58°
2026-04-26 18:24 25.79355 -80.28825 13 ft 1 kts 58°
2026-04-26 18:24 25.79369 -80.28812 13 ft 5 kts 26°
2026-04-26 18:25 25.79426 -80.28809 13 ft 11 kts 356°
2026-04-26 18:25 25.79508 -80.28807 13 ft 12 kts 359°
2026-04-26 18:25 25.79613 -80.28811 13 ft 17 kts 358°
2026-04-26 18:25 25.79716 -80.28816 13 ft 11 kts
2026-04-26 18:26 25.79761 -80.28775 13 ft 7 kts 79°
2026-04-26 18:26 25.79755 -80.28732 13 ft 4 kts 124°
2026-04-26 18:26 25.79740 -80.28716 13 ft 2 kts 137°
2026-04-26 18:26 25.79732 -80.28708 13 ft 1 kts 137°